Terug naar catalogus

COSMOS 1559

ActiefNavigatieLEO
NORAD 14998·PAYLOAD·🇷🇺 Russia

Gelanceerd May 28, 1984 vanaf Plesetsk Cosmodrome

Loading…

Volgende Passages (komende 24 uur)

TLE

VersSource: Space-Track

Epoch: Sep 14, 2026, 11:23 UTC

1 14998U 84052A   26257.47449374 -.00000036  00000-0 -14630-3 0  9992
2 14998  74.0103  65.7508 0025791 347.5483  41.7099 12.43981414920645

Volg COSMOS 1559 in realtime met AllMySat

Download on the App Store